When you browse on this site, cookies collect data to enhance your experience and personalize the content and advertising you see.
Visit our Privacy Policy to learn more. By continuing to use the site, you agree to this use of cookies and data.
  • In Czech Republic
  • List of Countries
  • For 7 days
  • Water Temperature
  • Weather Map
  • Weather Widgets
  • user-avatar
    Login

    Hourly Weather Aizkraukle

    Today, 27 May, Wednesday

    Time Temperature Precipitation Wind Pressure Humidity
    00:00 +9°C° 0 mm 2 mps 768 mmHg 78%
    01:00 +9°C° 0 mm 2 mps 768 mmHg 78%
    02:00 +8°C° 0 mm 2 mps 768 mmHg 78%
    03:00 +8°C° 0 mm 2 mps 768 mmHg 78%
    04:00 +8°C° 0 mm 2 mps 767 mmHg 78%
    05:00 +8°C° 0 mm 2 mps 767 mmHg 78%
    06:00 +10°C° 0 mm 2 mps 767 mmHg 71%
    07:00 +13°C° 0 mm 2 mps 767 mmHg 65%
    08:00 +16°C° 0 mm 2 mps 767 mmHg 59%
    09:00 +17°C° 0 mm 2 mps 767 mmHg 53%
    10:00 +19°C° 0 mm 2 mps 766 mmHg 47%
    11:00 +20°C° 0 mm 2 mps 766 mmHg 41%
    12:00 +20°C° 0 mm 2 mps 766 mmHg 41%
    13:00 +20°C° 0 mm 2 mps 765 mmHg 41%
    14:00 +21°C° 0 mm 2 mps 765 mmHg 41%
    15:00 +20°C° 0 mm 2 mps 764 mmHg 42%
    16:00 +20°C° 0 mm 2 mps 764 mmHg 44%
    17:00 +20°C° 0 mm 2 mps 764 mmHg 46%
    18:00 +18°C° 0 mm 2 mps 764 mmHg 54%
    19:00 +16°C° 0 mm 1 mps 764 mmHg 62%
    20:00 +14°C° 0 mm 1 mps 763 mmHg 71%
    21:00 +13°C° 0 mm 1 mps 763 mmHg 74%
    22:00 +12°C° 0 mm 1 mps 763 mmHg 77%
    23:00 +10°C° 0 mm 1 mps 763 mmHg 80%

    Tomorrow, 28 May, Thursday

    Time Temperature Precipitation Wind Pressure Humidity
    00:00 +10°C° 0 mm 1 mps 763 mmHg 80%
    01:00 +9°C° 0 mm 0 mps 763 mmHg 80%
    02:00 +8°C° 0 mm 0 mps 763 mmHg 80%
    03:00 +9°C° 0 mm 0 mps 763 mmHg 79%
    04:00 +10°C° 0 mm 1 mps 763 mmHg 79%
    05:00 +10°C° 0 mm 1 mps 762 mmHg 78%
    06:00 +12°C° 0 mm 1 mps 763 mmHg 73%
    07:00 +13°C° 0 mm 1 mps 763 mmHg 68%
    08:00 +15°C° 0 mm 1 mps 763 mmHg 63%
    09:00 +16°C° 0 mm 1 mps 763 mmHg 60%
    10:00 +19°C° 0 mm 1 mps 763 mmHg 56%
    11:00 +20°C° 0 mm 1 mps 763 mmHg 53%
    12:00 +19°C° 0.2 mm 2 mps 763 mmHg 53%
    13:00 +19°C° 0.2 mm 2 mps 762 mmHg 53%
    14:00 +19°C° 0.2 mm 2 mps 762 mmHg 54%
    15:00 +19°C° 0.3 mm 3 mps 762 mmHg 59%
    16:00 +18°C° 0.3 mm 3 mps 762 mmHg 64%
    17:00 +17°C° 0.3 mm 3 mps 762 mmHg 70%
    18:00 +16°C° 0.1 mm 3 mps 762 mmHg 74%
    19:00 +14°C° 0.1 mm 3 mps 762 mmHg 79%
    20:00 +13°C° 0.1 mm 3 mps 763 mmHg 84%
    21:00 +12°C° 0 mm 3 mps 763 mmHg 86%
    22:00 +11°C° 0 mm 3 mps 763 mmHg 89%
    23:00 +10°C° 0 mm 3 mps 763 mmHg 91%

    Day after tomorrow, 29 May, Friday

    Time Temperature Precipitation Wind Pressure Humidity
    00:00 +9°C° 0 mm 3 mps 763 mmHg 89%
    01:00 +9°C° 0 mm 3 mps 763 mmHg 88%
    02:00 +8°C° 0 mm 3 mps 763 mmHg 87%
    03:00 +8°C° 0 mm 3 mps 763 mmHg 85%
    04:00 +8°C° 0 mm 3 mps 763 mmHg 84%
    05:00 +8°C° 0 mm 3 mps 762 mmHg 83%
    06:00 +9°C° 0 mm 3 mps 762 mmHg 75%
    07:00 +11°C° 0 mm 4 mps 762 mmHg 66%
    08:00 +13°C° 0 mm 4 mps 762 mmHg 58%
    09:00 +15°C° 0 mm 5 mps 762 mmHg 53%
    10:00 +16°C° 0 mm 5 mps 761 mmHg 48%
    11:00 +19°C° 0 mm 6 mps 761 mmHg 43%
    12:00 +19°C° 0 mm 6 mps 761 mmHg 43%
    13:00 +19°C° 0 mm 6 mps 760 mmHg 43%
    14:00 +20°C° 0 mm 5 mps 760 mmHg 43%
    15:00 +19°C° 0 mm 5 mps 760 mmHg 45%
    16:00 +19°C° 0 mm 5 mps 760 mmHg 48%
    17:00 +18°C° 0 mm 4 mps 759 mmHg 50%
    18:00 +17°C° 0.1 mm 4 mps 759 mmHg 55%
    19:00 +15°C° 0.1 mm 4 mps 759 mmHg 60%
    20:00 +13°C° 0.1 mm 4 mps 759 mmHg 65%
    21:00 +13°C° 0 mm 5 mps 759 mmHg 62%
    22:00 +13°C° 0 mm 5 mps 759 mmHg 58%
    23:00 +12°C° 0 mm 5 mps 759 mmHg 55%

    30 May, Saturday

    Time Temperature Precipitation Wind Pressure Humidity
    00:00 +13°C° 0 mm 5 mps 759 mmHg 55%
    01:00 +13°C° 0 mm 5 mps 758 mmHg 56%
    02:00 +13°C° 0 mm 5 mps 758 mmHg 56%
    03:00 +12°C° 0 mm 5 mps 758 mmHg 56%
    04:00 +12°C° 0 mm 5 mps 758 mmHg 55%
    05:00 +12°C° 0 mm 5 mps 758 mmHg 54%
    06:00 +12°C° 0 mm 5 mps 758 mmHg 57%
    07:00 +13°C° 0 mm 5 mps 758 mmHg 60%
    08:00 +14°C° 0 mm 5 mps 758 mmHg 62%
    09:00 +14°C° 0 mm 5 mps 758 mmHg 66%
    10:00 +15°C° 0 mm 5 mps 758 mmHg 69%
    11:00 +15°C° 0 mm 5 mps 758 mmHg 72%
    12:00 +16°C° 0 mm 5 mps 758 mmHg 70%
    13:00 +16°C° 0 mm 5 mps 758 mmHg 69%
    14:00 +17°C° 0 mm 5 mps 758 mmHg 68%
    15:00 +17°C° 0 mm 5 mps 758 mmHg 67%
    16:00 +17°C° 0 mm 5 mps 758 mmHg 66%
    17:00 +19°C° 0 mm 5 mps 758 mmHg 65%
    18:00 +16°C° 0.4 mm 5 mps 758 mmHg 74%
    19:00 +15°C° 0.4 mm 5 mps 758 mmHg 83%
    20:00 +14°C° 0.4 mm 5 mps 758 mmHg 92%
    21:00 +14°C° 0.1 mm 5 mps 758 mmHg 89%
    22:00 +14°C° 0.1 mm 5 mps 758 mmHg 87%
    23:00 +14°C° 0.1 mm 4 mps 759 mmHg 85%

    31 May, Sunday

    Time Temperature Precipitation Wind Pressure Humidity
    00:00 +14°C° 0 mm 5 mps 758 mmHg 81%
    01:00 +14°C° 0 mm 5 mps 758 mmHg 78%
    02:00 +14°C° 0 mm 5 mps 758 mmHg 74%
    03:00 +13°C° 0 mm 5 mps 759 mmHg 73%
    04:00 +13°C° 0 mm 5 mps 759 mmHg 72%
    05:00 +13°C° 0 mm 5 mps 759 mmHg 71%
    06:00 +14°C° 0 mm 5 mps 759 mmHg 67%
    07:00 +15°C° 0 mm 6 mps 759 mmHg 63%
    08:00 +17°C° 0 mm 6 mps 759 mmHg 59%
    09:00 +19°C° 0 mm 6 mps 759 mmHg 54%
    10:00 +20°C° 0 mm 6 mps 759 mmHg 49%
    11:00 +22°C° 0 mm 6 mps 759 mmHg 44%
    12:00 +22°C° 0 mm 6 mps 759 mmHg 42%
    13:00 +23°C° 0 mm 6 mps 759 mmHg 40%
    14:00 +23°C° 0 mm 6 mps 759 mmHg 38%
    15:00 +23°C° 0 mm 6 mps 760 mmHg 39%
    16:00 +22°C° 0 mm 5 mps 760 mmHg 41%
    17:00 +22°C° 0 mm 5 mps 760 mmHg 43%
    18:00 +20°C° 0 mm 5 mps 760 mmHg 49%
    19:00 +19°C° 0 mm 4 mps 761 mmHg 56%
    20:00 +17°C° 0 mm 3 mps 761 mmHg 63%
    21:00 +16°C° 0 mm 3 mps 762 mmHg 63%
    22:00 +13°C° 0 mm 3 mps 762 mmHg 62%
    23:00 +12°C° 0 mm 3 mps 763 mmHg 62%

    1 June, Monday

    Time Temperature Precipitation Wind Pressure Humidity
    00:00 +11°C° 0 mm 3 mps 763 mmHg 64%
    01:00 +10°C° 0 mm 3 mps 763 mmHg 65%
    02:00 +10°C° 0 mm 3 mps 764 mmHg 66%
    03:00 +9°C° 0 mm 3 mps 764 mmHg 66%
    04:00 +9°C° 0 mm 3 mps 764 mmHg 66%
    05:00 +9°C° 0 mm 3 mps 764 mmHg 66%
    06:00 +10°C° 0 mm 3 mps 764 mmHg 59%
    07:00 +12°C° 0 mm 4 mps 765 mmHg 53%
    08:00 +13°C° 0 mm 4 mps 765 mmHg 46%
    09:00 +14°C° 0 mm 4 mps 765 mmHg 42%
    10:00 +17°C° 0 mm 4 mps 765 mmHg 39%
    11:00 +18°C° 0 mm 4 mps 765 mmHg 35%
    12:00 +18°C° 0 mm 4 mps 764 mmHg 34%
    13:00 +19°C° 0 mm 4 mps 764 mmHg 34%
    14:00 +20°C° 0 mm 4 mps 764 mmHg 34%
    15:00 +20°C° 0 mm 4 mps 764 mmHg 35%
    16:00 +19°C° 0 mm 4 mps 764 mmHg 36%
    17:00 +19°C° 0 mm 4 mps 764 mmHg 37%
    18:00 +18°C° 0 mm 3 mps 764 mmHg 45%
    19:00 +16°C° 0 mm 3 mps 764 mmHg 53%
    20:00 +14°C° 0 mm 2 mps 764 mmHg 61%
    21:00 +13°C° 0 mm 2 mps 764 mmHg 63%
    22:00 +12°C° 0 mm 2 mps 764 mmHg 64%
    23:00 +9°C° 0 mm 2 mps 765 mmHg 66%
    Show more